| time (UTC) | temp F | wind direction | speed knots | gust knots | rain 1hr in | rain 24hr in | rain mn in | humidity % | barometer mb |
| 20260507115030 | 71 | 59 | 0.0 | 4.3 | 0.00 | 0.00 | 0.00 | 88 | 1016.7 |
| 20260507114529 | 72 | 62 | 2.6 | 4.3 | 0.00 | 0.00 | 0.00 | 87 | 1016.7 |
| 20260507114031 | 73 | 83 | 0.9 | 4.3 | 0.00 | 0.00 | 0.00 | 89 | 1016.8 |
| 20260507113527 | 73 | 318 | 0.9 | 5.2 | 0.00 | 0.00 | 0.00 | 89 | 1016.7 |
| 20260507113029 | 73 | 298 | 0.9 | 5.2 | 0.00 | 0.00 | 0.00 | 89 | 1016.7 |
| 20260507112527 | 73 | 101 | 1.7 | 7.0 | 0.00 | 0.00 | 0.00 | 89 | 1016.8 |
| 20260507112026 | 73 | 325 | 1.7 | 7.0 | 0.00 | 0.00 | 0.00 | 89 | 1016.9 |
| 20260507111526 | 73 | 271 | 0.9 | 6.1 | 0.00 | 0.00 | 0.00 | 89 | 1016.9 |
| 20260507111024 | 73 | 318 | 1.7 | 5.2 | 0.00 | 0.00 | 0.00 | 89 | 1016.9 |
| 20260507110524 | 73 | 317 | 1.7 | 7.8 | 0.00 | 0.00 | 0.00 | 89 | 1017.0 |
| 20260507110030 | 73 | 336 | 0.9 | 7.8 | 0.00 | 0.00 | 0.00 | 89 | 1017.0 |
| 20260507105525 | 73 | 326 | 0.9 | 6.1 | 0.00 | 0.00 | 0.00 | 90 | 1017.0 |
| 20260507105023 | 73 | 350 | 0.9 | 5.2 | 0.00 | 0.00 | 0.00 | 90 | 1017.0 |
| 20260507104523 | 73 | 117 | 0.9 | 3.5 | 0.00 | 0.00 | 0.00 | 90 | 1017.0 |
| 20260507104021 | 73 | 81 | 0.9 | 3.5 | 0.00 | 0.00 | 0.00 | 89 | 1017.0 |
| 20260507103520 | 73 | 288 | 0.0 | 5.2 | 0.00 | 0.00 | 0.00 | 89 | 1017.0 |
| 20260507103019 | 74 | 342 | 0.9 | 7.8 | 0.00 | 0.00 | 0.00 | 89 | 1017.1 |
| 20260507102517 | 74 | 11 | 1.7 | 7.8 | 0.00 | 0.00 | 0.00 | 89 | 1017.1 |
| 20260507102016 | 74 | 89 | 0.9 | 7.0 | 0.00 | 0.00 | 0.00 | 88 | 1017.1 |
| 20260507101517 | 74 | 325 | 0.9 | 7.0 | 0.00 | 0.00 | 0.00 | 89 | 1017.1 |
| 20260507101012 | 74 | 309 | 1.7 | 7.0 | 0.00 | 0.00 | 0.00 | 89 | 1017.2 |
| 20260507100516 | 74 | 46 | 1.7 | 7.0 | 0.00 | 0.00 | 0.00 | 89 | 1017.2 |
| 20260507100009 | 74 | 329 | 0.9 | 6.1 | 0.00 | 0.00 | 0.00 | 89 | 1017.2 |
| 20260507095509 | 74 | 281 | 0.9 | 5.2 | 0.00 | 0.00 | 0.00 | 88 | 1017.2 |
| 20260507095010 | 74 | 308 | 1.7 | 5.2 | 0.00 | 0.00 | 0.00 | 88 | 1017.3 |
| 20260507094509 | 74 | 328 | 1.7 | 7.0 | 0.00 | 0.00 | 0.00 | 88 | 1017.3 |
| 20260507094009 | 74 | 44 | 0.9 | 8.7 | 0.00 | 0.00 | 0.00 | 88 | 1017.2 |
| 20260507093509 | 74 | 49 | 2.6 | 8.7 | 0.00 | 0.00 | 0.00 | 88 | 1017.3 |
| 20260507093011 | 74 | 325 | 0.9 | 7.0 | 0.00 | 0.00 | 0.00 | 89 | 1017.4 |
| 20260507092512 | 74 | 301 | 1.7 | 9.6 | 0.00 | 0.00 | 0.00 | 89 | 1017.4 |
| 20260507092008 | 74 | 288 | 2.6 | 9.6 | 0.00 | 0.00 | 0.00 | 89 | 1017.4 |
| 20260507091509 | 74 | 108 | 2.6 | 7.0 | 0.00 | 0.00 | 0.00 | 89 | 1017.5 |
| 20260507091009 | 74 | 355 | 1.7 | 8.7 | 0.00 | 0.00 | 0.00 | 89 | 1017.5 |
| 20260507090509 | 74 | 305 | 2.6 | 8.7 | 0.00 | 0.00 | 0.00 | 89 | 1017.6 |
| 20260507090007 | 74 | 17 | 1.7 | 7.0 | 0.00 | 0.00 | 0.00 | 89 | 1017.6 |
| 20260507085508 | 74 | 290 | 0.9 | 7.0 | 0.00 | 0.00 | 0.00 | 89 | 1017.7 |
| 20260507085008 | 74 | 327 | 0.9 | 5.2 | 0.00 | 0.00 | 0.00 | 89 | 1017.7 |
| 20260507084512 | 74 | 336 | 1.7 | 5.2 | 0.00 | 0.00 | 0.00 | 89 | 1017.6 |
| 20260507084008 | 74 | 320 | 0.9 | 5.2 | 0.00 | 0.00 | 0.00 | 89 | 1017.7 |
| 20260507083509 | 74 | 11 | 0.9 | 6.1 | 0.00 | 0.00 | 0.00 | 89 | 1017.7 |
| 20260507083006 | 74 | 295 | 0.9 | 6.1 | 0.00 | 0.00 | 0.00 | 89 | 1017.7 |
| 20260507082507 | 74 | 296 | 1.7 | 4.3 | 0.00 | 0.00 | 0.00 | 89 | 1017.7 |
| 20260507082006 | 74 | 333 | 0.9 | 4.3 | 0.00 | 0.00 | 0.00 | 89 | 1017.7 |
| 20260507081506 | 74 | 57 | 1.7 | 4.3 | 0.00 | 0.00 | 0.00 | 89 | 1017.7 |
| 20260507081006 | 74 | 63 | 0.9 | 3.5 | 0.00 | 0.00 | 0.00 | 89 | 1017.7 |
| 20260507080511 | 74 | 61 | 0.9 | 5.2 | 0.00 | 0.00 | 0.00 | 89 | 1017.7 |
| 20260507080010 | 74 | 313 | 0.0 | 5.2 | 0.00 | 0.00 | 0.00 | 89 | 1017.6 |
| 20260507075505 | 74 | 271 | 0.9 | 4.3 | 0.00 | 0.00 | 0.00 | 88 | 1017.6 |
| 20260507075005 | 74 | 319 | 0.9 | 6.1 | 0.00 | 0.00 | 0.00 | 88 | 1017.6 |
| 20260507074505 | 74 | 263 | 0.9 | 6.1 | 0.00 | 0.00 | 0.00 | 88 | 1017.6 |
| 20260507074004 | 75 | 333 | 0.9 | 7.0 | 0.00 | 0.00 | 0.00 | 88 | 1017.5 |
| 20260507073504 | 75 | 290 | 1.7 | 7.0 | 0.00 | 0.00 | 0.00 | 87 | 1017.5 |
| 20260507073003 | 75 | 337 | 1.7 | 7.0 | 0.00 | 0.00 | 0.00 | 87 | 1017.5 |
| 20260507072503 | 75 | 311 | 1.7 | 5.2 | 0.00 | 0.00 | 0.00 | 87 | 1017.4 |
| 20260507072004 | 75 | 257 | 0.9 | 5.2 | 0.00 | 0.00 | 0.00 | 86 | 1017.4 |
| 20260507071502 | 75 | 280 | 0.9 | 7.0 | 0.00 | 0.00 | 0.00 | 86 | 1017.3 |
| 20260507071002 | 75 | 343 | 0.9 | 7.0 | 0.00 | 0.00 | 0.00 | 86 | 1017.3 |
| 20260507070600 | 75 | 317 | 0.9 | 5.2 | 0.00 | 0.00 | 0.00 | 85 | 1017.3 |
| 20260507070100 | 75 | 278 | 1.7 | 7.0 | 0.00 | 0.00 | 0.00 | 85 | 1017.2 |
| 20260507065558 | 75 | 321 | 0.9 | 7.8 | 0.00 | 0.00 | 0.00 | 85 | 1017.1 |
| 20260507065058 | 75 | 52 | 1.7 | 7.0 | 0.00 | 0.00 | 0.00 | 85 | 1017.0 |
| 20260507064613 | 75 | 38 | 1.7 | 7.0 | 0.00 | 0.00 | 0.00 | 84 | 1016.9 |
| 20260507064059 | 75 | 79 | 1.7 | 7.0 | 0.00 | 0.00 | 0.00 | 84 | 1016.9 |
| 20260507063556 | 76 | 56 | 0.9 | 7.0 | 0.00 | 0.00 | 0.00 | 84 | 1016.8 |
| 20260507063057 | 76 | 26 | 1.7 | 11.3 | 0.00 | 0.00 | 0.00 | 84 | 1016.7 |
| 20260507062554 | 76 | 57 | 2.6 | 11.3 | 0.00 | 0.00 | 0.00 | 83 | 1016.7 |
| 20260507062054 | 76 | 355 | 2.6 | 8.7 | 0.00 | 0.00 | 0.00 | 83 | 1016.7 |
| 20260507061554 | 76 | 96 | 1.7 | 6.1 | 0.00 | 0.00 | 0.00 | 83 | 1016.6 |
| 20260507061054 | 76 | 15 | 1.7 | 7.0 | 0.00 | 0.00 | 0.00 | 83 | 1016.5 |
| 20260507060553 | 76 | 331 | 1.7 | 8.7 | 0.00 | 0.00 | 0.00 | 82 | 1016.5 |
| 20260507060059 | 76 | 310 | 2.6 | 7.0 | 0.00 | 0.00 | 0.00 | 82 | 1016.4 |
| 20260507055553 | 76 | 30 | 1.7 | 9.6 | 0.00 | 0.00 | 0.00 | 82 | 1016.4 |
| 20260507055053 | 76 | 64 | 2.6 | 9.6 | 0.00 | 0.00 | 0.00 | 82 | 1016.3 |
| 20260507054605 | 76 | 340 | 0.9 | 9.6 | 0.00 | 0.00 | 0.00 | 82 | 1016.3 |
| 20260507054053 | 76 | 316 | 2.6 | 9.6 | 0.00 | 0.00 | 0.00 | 82 | 1016.2 |
| 20260507053553 | 76 | 67 | 1.7 | 7.8 | 0.00 | 0.00 | 0.00 | 82 | 1016.2 |
| 20260507053053 | 76 | 304 | 1.7 | 7.0 | 0.00 | 0.00 | 0.00 | 82 | 1016.1 |
| 20260507052552 | 76 | 49 | 1.7 | 7.0 | 0.00 | 0.00 | 0.00 | 82 | 1016.0 |
| 20260507052052 | 76 | 92 | 1.7 | 7.8 | 0.00 | 0.00 | 0.00 | 82 | 1015.8 |
| 20260507051555 | 77 | 333 | 2.6 | 9.6 | 0.00 | 0.00 | 0.00 | 82 | 1015.8 |
| 20260507051052 | 77 | 35 | 0.9 | 9.6 | 0.00 | 0.00 | 0.00 | 81 | 1015.7 |
| 20260507050552 | 77 | 22 | 0.9 | 5.2 | 0.00 | 0.00 | 0.00 | 81 | 1015.7 |
| 20260507050051 | 77 | 49 | 1.7 | 5.2 | 0.00 | 0.00 | 0.00 | 81 | 1015.5 |
| 20260507045554 | 77 | 344 | 1.7 | 6.1 | 0.00 | 0.00 | 0.00 | 81 | 1015.4 |
| 20260507045051 | 77 | 300 | 2.6 | 6.1 | 0.00 | 0.00 | 0.00 | 81 | 1015.4 |
| 20260507044551 | 77 | 285 | 1.7 | 7.8 | 0.00 | 0.00 | 0.00 | 80 | 1015.4 |
| 20260507044051 | 78 | 319 | 1.7 | 7.8 | 0.00 | 0.00 | 0.00 | 80 | 1015.3 |
| 20260507043551 | 78 | 277 | 2.6 | 7.8 | 0.00 | 0.00 | 0.00 | 80 | 1015.2 |
| 20260507043059 | 78 | 52 | 2.6 | 10.4 | 0.00 | 0.00 | 0.00 | 80 | 1015.3 |
| 20260507042550 | 78 | 307 | 4.3 | 10.4 | 0.00 | 0.00 | 0.00 | 79 | 1015.2 |
| 20260507042050 | 79 | 69 | 3.5 | 8.7 | 0.00 | 0.00 | 0.00 | 78 | 1015.1 |
| 20260507041602 | 79 | 336 | 2.6 | 8.7 | 0.00 | 0.00 | 0.00 | 77 | 1015.0 |
| 20260507041051 | 80 | 329 | 1.7 | 10.4 | 0.00 | 0.00 | 0.00 | 76 | 1014.9 |
| 20260507040553 | 80 | 43 | 3.5 | 10.4 | 0.00 | 0.00 | 0.00 | 76 | 1014.8 |
| 20260507040055 | 80 | 308 | 3.5 | 8.7 | 0.00 | 0.00 | 0.00 | 75 | 1014.8 |
| 20260507035549 | 80 | 314 | 3.5 | 12.2 | 0.00 | 0.00 | 0.00 | 74 | 1014.7 |
| 20260507035050 | 81 | 332 | 3.5 | 12.2 | 0.00 | 0.00 | 0.00 | 73 | 1014.7 |
| 20260507034553 | 80 | 292 | 4.3 | 10.4 | 0.00 | 0.00 | 0.00 | 73 | 1014.7 |
| 20260507034049 | 81 | 259 | 2.6 | 10.4 | 0.00 | 0.00 | 0.00 | 73 | 1014.6 |
| 20260507033549 | 81 | 333 | 4.3 | 10.4 | 0.00 | 0.00 | 0.00 | 73 | 1014.6 |
| 20260507033050 | 81 | 229 | 4.3 | 12.2 | 0.00 | 0.00 | 0.00 | 72 | 1014.5 |
| 20260507032549 | 82 | 350 | 3.5 | 12.2 | 0.00 | 0.00 | 0.00 | 71 | 1014.5 |
| 20260507032053 | 82 | 242 | 2.6 | 11.3 | 0.00 | 0.00 | 0.00 | 71 | 1014.5 |
| 20260507031549 | 82 | 288 | 2.6 | 12.2 | 0.00 | 0.00 | 0.00 | 69 | 1014.4 |
| 20260507031052 | 82 | 55 | 3.5 | 12.2 | 0.00 | 0.00 | 0.00 | 68 | 1014.4 |
| 20260507030548 | 83 | 319 | 3.5 | 10.4 | 0.00 | 0.00 | 0.00 | 68 | 1014.4 |
| 20260507030053 | 83 | 86 | 3.5 | 8.7 | 0.00 | 0.00 | 0.00 | 67 | 1014.3 |
| 20260507025548 | 83 | 88 | 2.6 | 9.6 | 0.00 | 0.00 | 0.00 | 67 | 1014.2 |
| 20260507025048 | 83 | 306 | 2.6 | 10.4 | 0.00 | 0.00 | 0.00 | 68 | 1014.1 |
| 20260507024548 | 83 | 332 | 2.6 | 10.4 | 0.00 | 0.00 | 0.00 | 68 | 1014.1 |
| 20260507024047 | 83 | 339 | 3.5 | 9.6 | 0.00 | 0.00 | 0.00 | 67 | 1014.1 |
| 20260507023547 | 83 | 166 | 3.5 | 9.6 | 0.00 | 0.00 | 0.00 | 68 | 1014.1 |
| 20260507023103 | 83 | 258 | 4.3 | 11.3 | 0.00 | 0.00 | 0.00 | 68 | 1014.1 |
| 20260507022548 | 83 | 51 | 3.5 | 11.3 | 0.00 | 0.00 | 0.00 | 67 | 1014.1 |
| 20260507022048 | 83 | 347 | 3.5 | 9.6 | 0.00 | 0.00 | 0.00 | 67 | 1014.1 |
| 20260507021551 | 83 | 312 | 3.5 | 9.6 | 0.00 | 0.00 | 0.00 | 68 | 1014.2 |
| 20260507021048 | 84 | 298 | 2.6 | 8.7 | 0.00 | 0.00 | 0.00 | 66 | 1014.2 |
| 20260507020546 | 84 | 62 | 2.6 | 9.6 | 0.00 | 0.00 | 0.00 | 65 | 1014.2 |
| 20260507020046 | 85 | 277 | 3.5 | 9.6 | 0.00 | 0.00 | 0.00 | 63 | 1014.3 |
| 20260507015545 | 85 | 283 | 3.5 | 13.0 | 0.00 | 0.00 | 0.00 | 64 | 1014.3 |
| 20260507015045 | 85 | 334 | 3.5 | 13.0 | 0.00 | 0.00 | 0.00 | 64 | 1014.3 |
| 20260507014557 | 86 | 24 | 3.5 | 8.7 | 0.00 | 0.00 | 0.00 | 62 | 1014.3 |
| 20260507014045 | 86 | 43 | 2.6 | 10.4 | 0.00 | 0.00 | 0.00 | 63 | 1014.3 |
| 20260507013544 | 85 | 71 | 4.3 | 10.4 | 0.00 | 0.00 | 0.00 | 63 | 1014.3 |
| 20260507013103 | 85 | 63 | 3.5 | 8.7 | 0.00 | 0.00 | 0.00 | 63 | 1014.3 |
| 20260507012545 | 85 | 90 | 4.3 | 10.4 | 0.00 | 0.00 | 0.00 | 60 | 1014.3 |
| 20260507012045 | 86 | 233 | 5.2 | 10.4 | 0.00 | 0.00 | 0.00 | 61 | 1014.4 |
| 20260507011545 | 86 | 35 | 2.6 | 9.6 | 0.00 | 0.00 | 0.00 | 61 | 1014.3 |
| 20260507011044 | 87 | 86 | 2.6 | 8.7 | 0.00 | 0.00 | 0.00 | 60 | 1014.4 |
| 20260507010544 | 86 | 72 | 4.3 | 8.7 | 0.00 | 0.00 | 0.00 | 61 | 1014.4 |
| 20260507010044 | 86 | 319 | 3.5 | 8.7 | 0.00 | 0.00 | 0.00 | 61 | 1014.5 |
| 20260507005543 | 86 | 281 | 2.6 | 9.6 | 0.00 | 0.00 | 0.00 | 60 | 1014.5 |
| 20260507005044 | 87 | 335 | 2.6 | 8.7 | 0.00 | 0.00 | 0.00 | 60 | 1014.5 |
| 20260507004543 | 86 | 253 | 2.6 | 9.6 | 0.00 | 0.00 | 0.00 | 59 | 1014.6 |
| 20260507004044 | 86 | 44 | 4.3 | 9.6 | 0.00 | 0.00 | 0.00 | 60 | 1014.6 |
| 20260507003543 | 86 | 265 | 2.6 | 9.6 | 0.00 | 0.00 | 0.00 | 61 | 1014.6 |
| 20260507003044 | 85 | 301 | 4.3 | 11.3 | 0.00 | 0.00 | 0.00 | 61 | 1014.6 |
| 20260507002544 | 86 | 300 | 3.5 | 10.4 | 0.00 | 0.00 | 0.00 | 60 | 1014.6 |
| 20260507002043 | 86 | 331 | 3.5 | 10.4 | 0.00 | 0.00 | 0.00 | 60 | 1014.7 |
| 20260507001600 | 87 | 65 | 4.3 | 9.6 | 0.00 | 0.00 | 0.00 | 59 | 1014.7 |
| 20260507001045 | 87 | 73 | 2.6 | 8.7 | 0.00 | 0.00 | 0.00 | 60 | 1014.8 |
| 20260507000542 | 87 | 311 | 4.3 | 9.6 | 0.00 | 0.00 | 0.00 | 59 | 1014.9 |
| 20260507000042 | 86 | 331 | 4.3 | 9.6 | 0.00 | 0.00 | 0.00 | 58 | 1014.8 |
| 20260506235544 | 86 | 42 | 2.6 | 10.4 | 0.00 | 0.00 | 0.00 | 59 | 1014.8 |
| 20260506235041 | 87 | 63 | 3.5 | 10.4 | 0.00 | 0.00 | 0.00 | 58 | 1014.9 |
| 20260506234541 | 87 | 289 | 1.7 | 8.7 | 0.00 | 0.00 | 0.00 | 59 | 1014.9 |
| 20260506234045 | 86 | 297 | 3.5 | 9.6 | 0.00 | 0.00 | 0.00 | 60 | 1015.0 |
| 20260506233542 | 87 | 32 | 5.2 | 9.6 | 0.00 | 0.00 | 0.00 | 59 | 1015.1 |
| 20260506233045 | 88 | 292 | 2.6 | 9.6 | 0.00 | 0.00 | 0.00 | 58 | 1015.1 |
| 20260506232543 | 87 | 296 | 2.6 | 9.6 | 0.00 | 0.00 | 0.00 | 59 | 1015.1 |
| 20260506232040 | 87 | 279 | 3.5 | 11.3 | 0.00 | 0.00 | 0.00 | 60 | 1015.1 |
| 20260506231546 | 86 | 302 | 3.5 | 11.3 | 0.00 | 0.00 | 0.00 | 60 | 1015.1 |
| 20260506231040 | 86 | 248 | 2.6 | 8.7 | 0.00 | 0.00 | 0.00 | 61 | 1015.2 |
| 20260506230539 | 86 | 303 | 2.6 | 8.7 | 0.00 | 0.00 | 0.00 | 61 | 1015.2 |
| 20260506230039 | 87 | 315 | 1.7 | 10.4 | 0.00 | 0.00 | 0.00 | 59 | 1015.3 |
| 20260506225539 | 86 | 47 | 1.7 | 10.4 | 0.00 | 0.00 | 0.00 | 61 | 1015.3 |
| 20260506225039 | 86 | 277 | 2.6 | 7.8 | 0.00 | 0.00 | 0.00 | 60 | 1015.5 |
| 20260506224539 | 86 | 69 | 3.5 | 7.8 | 0.00 | 0.00 | 0.00 | 62 | 1015.5 |
| 20260506224038 | 86 | 65 | 2.6 | 7.8 | 0.00 | 0.00 | 0.00 | 61 | 1015.6 |
| 20260506223538 | 87 | 273 | 2.6 | 7.8 | 0.00 | 0.00 | 0.00 | 60 | 1015.6 |
| 20260506223045 | 87 | 271 | 2.6 | 7.8 | 0.00 | 0.00 | 0.00 | 58 | 1015.6 |
| 20260506222537 | 87 | 78 | 1.7 | 7.8 | 0.00 | 0.00 | 0.00 | 60 | 1015.6 |
| 20260506222037 | 87 | 300 | 3.5 | 7.8 | 0.00 | 0.00 | 0.00 | 59 | 1015.6 |
| 20260506221537 | 87 | 279 | 3.5 | 8.7 | 0.00 | 0.00 | 0.00 | 59 | 1015.6 |
| 20260506221036 | 86 | 306 | 3.5 | 8.7 | 0.00 | 0.00 | 0.00 | 60 | 1015.6 |
| 20260506220536 | 87 | 311 | 2.6 | 7.8 | 0.00 | 0.00 | 0.00 | 60 | 1015.7 |
| 20260506220035 | 86 | 42 | 2.6 | 8.7 | 0.00 | 0.00 | 0.00 | 60 | 1015.6 |
| 20260506215535 | 86 | 42 | 2.6 | 11.3 | 0.00 | 0.00 | 0.00 | 60 | 1015.7 |
| 20260506215034 | 86 | 127 | 3.5 | 11.3 | 0.00 | 0.00 | 0.00 | 61 | 1015.8 |
| 20260506214534 | 86 | 292 | 2.6 | 12.2 | 0.00 | 0.00 | 0.00 | 61 | 1015.9 |
| 20260506214033 | 86 | 321 | 2.6 | 12.2 | 0.00 | 0.00 | 0.00 | 60 | 1015.9 |
| 20260506213534 | 87 | 80 | 3.5 | 11.3 | 0.00 | 0.00 | 0.00 | 60 | 1016.0 |
| 20260506213037 | 87 | 335 | 2.6 | 7.8 | 0.00 | 0.00 | 0.00 | 59 | 1016.0 |
| 20260506212533 | 86 | 84 | 1.7 | 7.0 | 0.00 | 0.00 | 0.00 | 60 | 1016.1 |
| 20260506212032 | 86 | 326 | 1.7 | 7.0 | 0.00 | 0.00 | 0.00 | 61 | 1016.1 |
| 20260506211531 | 86 | 306 | 2.6 | 8.7 | 0.00 | 0.00 | 0.00 | 61 | 1016.2 |
| 20260506211030 | 86 | 349 | 2.6 | 8.7 | 0.00 | 0.00 | 0.00 | 61 | 1016.3 |
| 20260506210529 | 85 | 55 | 2.6 | 7.8 | 0.00 | 0.00 | 0.00 | 61 | 1016.2 |
| 20260506210031 | 85 | 46 | 2.6 | 7.0 | 0.00 | 0.00 | 0.00 | 62 | 1016.2 |
| 20260506205527 | 85 | 306 | 1.7 | 5.2 | 0.00 | 0.00 | 0.00 | 61 | 1016.3 |
| 20260506205027 | 85 | 250 | 1.7 | 5.2 | 0.00 | 0.00 | 0.00 | 61 | 1016.4 |
| 20260506204527 | 85 | 276 | 1.7 | 7.0 | 0.00 | 0.00 | 0.00 | 61 | 1016.3 |
| 20260506204026 | 85 | 311 | 2.6 | 8.7 | 0.00 | 0.00 | 0.00 | 62 | 1016.3 |
| 20260506203525 | 84 | 321 | 2.6 | 8.7 | 0.00 | 0.00 | 0.00 | 64 | 1016.2 |
| 20260506203023 | 84 | 228 | 1.7 | 5.2 | 0.00 | 0.00 | 0.00 | 65 | 1016.2 |
| 20260506202523 | 83 | 252 | 2.6 | 6.1 | 0.00 | 0.00 | 0.00 | 66 | 1016.3 |
| 20260506202024 | 83 | 200 | 1.7 | 6.1 | 0.00 | 0.00 | 0.00 | 65 | 1016.4 |
| 20260506201523 | 83 | 235 | 0.9 | 5.2 | 0.00 | 0.00 | 0.00 | 65 | 1016.4 |
| 20260506201023 | 83 | 248 | 0.9 | 4.3 | 0.00 | 0.00 | 0.00 | 66 | 1016.4 |
| 20260506200521 | 83 | 216 | 1.7 | 5.2 | 0.00 | 0.00 | 0.00 | 66 | 1016.3 |
| 20260506200021 | 82 | 193 | 2.6 | 5.2 | 0.00 | 0.00 | 0.00 | 66 | 1016.3 |
| 20260506195520 | 83 | 275 | 1.7 | 4.3 | 0.00 | 0.00 | 0.00 | 66 | 1016.3 |
| 20260506195020 | 83 | 240 | 0.9 | 4.3 | 0.00 | 0.00 | 0.00 | 65 | 1016.5 |
| 20260506194520 | 83 | 220 | 1.7 | 6.1 | 0.00 | 0.00 | 0.00 | 66 | 1016.5 |
| 20260506194023 | 83 | 208 | 1.7 | 6.1 | 0.00 | 0.00 | 0.00 | 67 | 1016.5 |
| 20260506193520 | 83 | 227 | 1.7 | 4.3 | 0.00 | 0.00 | 0.00 | 67 | 1016.5 |
| 20260506193017 | 82 | 230 | 1.7 | 4.3 | 0.00 | 0.00 | 0.00 | 66 | 1016.6 |
| 20260506192517 | 82 | 210 | 1.7 | 5.2 | 0.00 | 0.00 | 0.00 | 67 | 1016.5 |
| 20260506192016 | 81 | 265 | 1.7 | 5.2 | 0.00 | 0.00 | 0.00 | 70 | 1016.5 |
| 20260506191517 | 81 | 205 | 1.7 | 4.3 | 0.00 | 0.00 | 0.00 | 69 | 1016.4 |
| 20260506191015 | 81 | 268 | 1.7 | 5.2 | 0.00 | 0.00 | 0.00 | 70 | 1016.4 |
| 20260506190514 | 80 | 179 | 1.7 | 5.2 | 0.00 | 0.00 | 0.00 | 70 | 1016.4 |
| 20260506190014 | 80 | 245 | 1.7 | 5.2 | 0.00 | 0.00 | 0.00 | 70 | 1016.4 |
| 20260506185614 | 81 | 244 | 0.9 | 3.5 | 0.00 | 0.00 | 0.00 | 70 | 1016.3 |
| 20260506185014 | 80 | 221 | 1.7 | 4.3 | 0.00 | 0.00 | 0.00 | 70 | 1016.3 |
| 20260506184513 | 81 | 244 | 0.9 | 4.3 | 0.00 | 0.00 | 0.00 | 68 | 1016.3 |
| 20260506184013 | 81 | 205 | 2.6 | 4.3 | 0.00 | 0.00 | 0.00 | 68 | 1016.3 |
| 20260506183513 | 82 | 113 | 0.9 | 4.3 | 0.00 | 0.00 | 0.00 | 68 | 1016.2 |
| 20260506183012 | 82 | 215 | 0.9 | 2.6 | 0.00 | 0.00 | 0.00 | 67 | 1016.3 |
| 20260506182513 | 82 | 228 | 0.0 | 1.7 | 0.00 | 0.00 | 0.00 | 67 | 1016.3 |
| 20260506182011 | 81 | 263 | 0.0 | 1.7 | 0.00 | 0.00 | 0.00 | 67 | 1016.2 |
| 20260506181512 | 82 | 202 | 0.9 | 1.7 | 0.00 | 0.00 | 0.00 | 65 | 1016.2 |
| 20260506181013 | 82 | 194 | 0.0 | 1.7 | 0.00 | 0.00 | 0.00 | 66 | 1016.3 |
| 20260506180519 | 82 | 149 | 0.0 | 1.7 | 0.00 | 0.00 | 0.00 | 67 | 1016.2 |
| 20260506180008 | 81 | 313 | 0.0 | 0.0 | 0.00 | 0.00 | 0.00 | 68 | 1016.1 |
| 20260506175511 | 80 | 313 | 0.0 | 0.0 | 0.00 | 0.00 | 0.00 | 69 | 1016.0 |
| 20260506175006 | 80 | 313 | 0.0 | 0.0 | 0.00 | 0.00 | 0.00 | 68 | 1016.0 |
| 20260506174504 | 80 | 313 | 0.0 | 0.0 | 0.00 | 0.00 | 0.00 | 68 | 1016.0 |
| 20260506174006 | 79 | 68 | 0.0 | 0.0 | 0.00 | 0.00 | 0.00 | 66 | 1015.9 |
| 20260506173503 | 80 | 68 | 0.0 | 0.0 | 0.00 | 0.00 | 0.00 | 64 | 1015.8 |
| 20260506173003 | 78 | 68 | 0.0 | 0.0 | 0.00 | 0.00 | 0.00 | 65 | 1015.8 |
| 20260506172600 | 78 | 68 | 0.0 | 0.0 | 0.00 | 0.00 | 0.00 | 66 | 1015.6 |
| 20260506172059 | 76 | 68 | 0.0 | 0.0 | 0.00 | 0.00 | 0.00 | 67 | 1015.6 |
| 20260506171602 | 76 | 68 | 0.0 | 0.0 | 0.00 | 0.00 | 0.00 | 67 | 1015.6 |
| 20260506171057 | 75 | 68 | 0.0 | 0.0 | 0.00 | 0.00 | 0.00 | 68 | 1015.5 |
| 20260506170554 | 74 | 68 | 0.0 | 0.9 | 0.00 | 0.00 | 0.00 | 71 | 1015.4 |
| 20260506170053 | 73 | 68 | 0.0 | 0.9 | 0.00 | 0.00 | 0.00 | 70 | 1015.5 |
| 20260506165552 | 73 | 68 | 0.0 | 1.7 | 0.00 | 0.00 | 0.00 | 71 | 1015.3 |
| 20260506165052 | 72 | 68 | 0.0 | 1.7 | 0.00 | 0.00 | 0.00 | 72 | 1015.2 |
| 20260506164552 | 71 | 69 | 0.9 | 1.7 | 0.00 | 0.00 | 0.00 | 73 | 1015.1 |
| 20260506164051 | 70 | 84 | 0.0 | 0.9 | 0.00 | 0.00 | 0.00 | 76 | 1015.2 |
| 20260506163550 | 69 | 83 | 0.0 | 0.9 | 0.00 | 0.00 | 0.00 | 78 | 1015.2 |
| 20260506163051 | 68 | 83 | 0.0 | 0.9 | 0.00 | 0.00 | 0.00 | 78 | 1015.1 |
| 20260506162553 | 68 | 83 | 0.0 | 0.9 | 0.00 | 0.00 | 0.00 | 79 | 1015.0 |
| 20260506162053 | 67 | 83 | 0.0 | 0.0 | 0.00 | 0.00 | 0.00 | 79 | 1015.0 |
| 20260506161555 | 68 | 83 | 0.0 | 0.0 | 0.00 | 0.00 | 0.00 | 78 | 1015.0 |
| 20260506161049 | 68 | 84 | 0.0 | 0.0 | 0.00 | 0.00 | 0.00 | 78 | 1014.9 |
| 20260506160549 | 68 | 84 | 0.0 | 0.0 | 0.00 | 0.00 | 0.00 | 77 | 1014.9 |
| 20260506160059 | 68 | 84 | 0.0 | 0.9 | 0.00 | 0.00 | 0.00 | 77 | 1015.0 |
| 20260506155548 | 68 | 84 | 0.0 | 1.7 | 0.00 | 0.00 | 0.00 | 77 | 1014.9 |
| 20260506155048 | 68 | 84 | 0.0 | 1.7 | 0.00 | 0.00 | 0.00 | 78 | 1014.9 |
| 20260506154548 | 68 | 96 | 0.0 | 1.7 | 0.00 | 0.00 | 0.00 | 79 | 1014.7 |
| 20260506154048 | 68 | 103 | 0.0 | 0.9 | 0.00 | 0.00 | 0.00 | 80 | 1014.7 |
| 20260506153548 | 68 | 104 | 0.0 | 0.0 | 0.00 | 0.00 | 0.00 | 80 | 1014.7 |
| 20260506153048 | 69 | 103 | 0.0 | 1.7 | 0.00 | 0.00 | 0.00 | 79 | 1014.7 |
| 20260506152548 | 69 | 104 | 0.0 | 2.6 | 0.00 | 0.00 | 0.00 | 79 | 1014.7 |
| 20260506152048 | 69 | 103 | 0.9 | 2.6 | 0.00 | 0.00 | 0.00 | 79 | 1014.5 |
| 20260506151548 | 69 | 69 | 0.0 | 1.7 | 0.00 | 0.00 | 0.00 | 80 | 1014.6 |
| 20260506151047 | 68 | 69 | 0.0 | 0.9 | 0.00 | 0.00 | 0.00 | 80 | 1014.5 |
| 20260506150547 | 69 | 69 | 0.0 | 0.9 | 0.00 | 0.00 | 0.00 | 80 | 1014.7 |
| 20260506150047 | 69 | 69 | 0.0 | 2.6 | 0.00 | 0.00 | 0.00 | 80 | 1014.4 |
| 20260506145550 | 69 | 69 | 0.9 | 2.6 | 0.00 | 0.00 | 0.00 | 80 | 1014.4 |
| 20260506145046 | 69 | 78 | 0.9 | 2.6 | 0.00 | 0.00 | 0.00 | 81 | 1014.3 |
| 20260506144546 | 69 | 78 | 0.0 | 1.7 | 0.00 | 0.00 | 0.00 | 82 | 1014.4 |
| 20260506144046 | 68 | 78 | 0.0 | 1.7 | 0.00 | 0.00 | 0.00 | 83 | 1014.4 |
| 20260506143546 | 68 | 78 | 0.0 | 1.7 | 0.00 | 0.00 | 0.00 | 84 | 1014.3 |
| 20260506143046 | 68 | 78 | 0.0 | 0.0 | 0.00 | 0.00 | 0.00 | 85 | 1014.2 |
| 20260506142544 | 68 | 78 | 0.0 | 0.0 | 0.00 | 0.00 | 0.00 | 84 | 1014.3 |
| 20260506142047 | 68 | 78 | 0.0 | 0.0 | 0.00 | 0.00 | 0.00 | 84 | 1014.3 |
| 20260506141543 | 68 | 78 | 0.0 | 0.0 | 0.00 | 0.00 | 0.00 | 84 | 1014.3 |
| 20260506141043 | 68 | 78 | 0.0 | 0.0 | 0.00 | 0.00 | 0.00 | 84 | 1014.5 |
| 20260506140542 | 68 | 78 | 0.0 | 0.0 | 0.00 | 0.00 | 0.00 | 84 | 1014.4 |
| 20260506140046 | 69 | 78 | 0.0 | 0.9 | 0.00 | 0.00 | 0.00 | 83 | 1014.4 |
| 20260506135540 | 69 | 78 | 0.0 | 0.9 | 0.00 | 0.00 | 0.00 | 83 | 1014.5 |
| 20260506135040 | 69 | 78 | 0.0 | 0.9 | 0.00 | 0.00 | 0.00 | 83 | 1014.6 |
| 20260506134608 | 69 | 78 | 0.0 | 0.9 | 0.00 | 0.00 | 0.00 | 83 | 1014.5 |
| 20260506134039 | 69 | 78 | 0.0 | 0.9 | 0.00 | 0.00 | 0.00 | 83 | 1014.4 |
| 20260506133538 | 69 | 78 | 0.0 | 0.0 | 0.00 | 0.00 | 0.00 | 83 | 1014.5 |
| 20260506133038 | 69 | 78 | 0.0 | 0.0 | 0.00 | 0.00 | 0.00 | 82 | 1014.6 |
| 20260506132537 | 70 | 78 | 0.0 | 0.9 | 0.00 | 0.00 | 0.00 | 81 | 1014.4 |
| 20260506132037 | 70 | 78 | 0.0 | 0.9 | 0.00 | 0.00 | 0.00 | 81 | 1014.4 |
| 20260506131546 | 70 | 78 | 0.0 | 0.0 | 0.00 | 0.00 | 0.00 | 80 | 1014.3 |
| 20260506131036 | 70 | 78 | 0.0 | 0.0 | 0.00 | 0.00 | 0.00 | 80 | 1014.4 |
| 20260506130635 | 70 | 78 | 0.0 | 0.0 | 0.00 | 0.00 | 0.00 | 80 | 1014.4 |
| 20260506130033 | 70 | 78 | 0.0 | 2.6 | 0.00 | 0.00 | 0.00 | 79 | 1014.4 |
| 20260506125533 | 70 | 78 | 0.0 | 2.6 | 0.00 | 0.00 | 0.00 | 78 | 1014.4 |
| 20260506125033 | 71 | 64 | 0.9 | 2.6 | 0.00 | 0.00 | 0.00 | 78 | 1014.2 |
| 20260506124533 | 71 | 65 | 0.9 | 2.6 | 0.00 | 0.00 | 0.00 | 78 | 1014.3 |
| 20260506124033 | 71 | 65 | 0.0 | 2.6 | 0.00 | 0.00 | 0.00 | 78 | 1014.5 |
| 20260506123533 | 71 | 65 | 0.0 | 2.6 | 0.00 | 0.00 | 0.00 | 78 | 1014.5 |
| 20260506123036 | 71 | 65 | 0.9 | 3.5 | 0.00 | 0.00 | 0.00 | 79 | 1014.4 |
| 20260506122533 | 71 | 74 | 0.9 | 3.5 | 0.00 | 0.00 | 0.00 | 80 | 1014.3 |
| 20260506122032 | 71 | 84 | 1.7 | 3.5 | 0.00 | 0.00 | 0.00 | 80 | 1014.3 |
| 20260506121534 | 71 | 67 | 1.7 | 3.5 | 0.00 | 0.00 | 0.00 | 81 | 1014.3 |
| 20260506121030 | 71 | 70 | 0.9 | 2.6 | 0.00 | 0.00 | 0.00 | 80 | 1014.5 |
| 20260506120530 | 71 | 70 | 0.0 | 3.5 | 0.00 | 0.00 | 0.00 | 80 | 1014.7 |
| 20260506120029 | 71 | 70 | 1.7 | 3.5 | 0.00 | 0.00 | 0.00 | 80 | 1014.7 |
| 20260506115528 | 71 | 73 | 0.9 | 2.6 | 0.00 | 0.00 | 0.00 | 80 | 1014.7 |